SCP
1 1 1 0 0 0 0 0 0 0 0 0 0 0 0 0 0 0 0 0 0 0 0 0 0 0 0 0 0 0 0 0 0 0 0 0 0 0 0 0 0 0 0
1 1 1 1 0 0 0 0 0 0 0 0 0 0 0 0 0 0 0 0 0 0 0 0 0 0 0 0 0 0 0 0 0 0 0 0 0 0 0 0 0 0 0
1 1 1 1 0 0 0 0 0 0 0 0 0 0 0 0 0 0 0 0 0 0 0 0 0 0 0 0 0 0 0 0 0 0 0 0 0 0 0 0 0 0 0
1 1 1 1 1 0 0 0 0 0 0 0 0 0 0 0 0 0 0 0 0 0 0 0 0 0 0 0 0 0 0 0 -0 -0 0 0 0 0 0 0 0 0 0
1 1 1 1 1 1 0 0 0 0 0 0 0 0 0 0 0 0 0 0 0 0 0 0 0 0 0 0 0 0 0 -0 -0 0 0 0 0 0 0 0 0 0 0
1 1 1 1 1 1 1 0 0 0 0 0 0 0 0 0 0 0 0 0 0 0 0 0 0 0 0 0 0 0 -0 -0 -0 0 0 0 0 0 0 0 0 0 0
1 1 1 1 1 1 1 1 1 1 1 1 0 1 1 1 1 0 0 0 0 0 0 0 0 0 0 0 0 0 -0 -0 0 0 0 0 0 0 0 0 0 0 0
1 1 1 1 1 1 1 1 1 1 1 1 1 1 1 1 1 1 0 0 0 0 0 0 0 0 0 0 0 0 -0 -0 0 0 0 0 0 0 0 0 0 0 0
1 1 1 1 1 1 1 1 1 1 1 1 1 1 1 1 1 1 1 0 0 0 0 0 0 0 0 0 0 0 -0 -0 0 0 0 0 0 0 0 0 0 0 0
1 1 0 0 0 0 1 1 1 1 1 1 1 1 1 1 1 1 1 1 0 0 0 0 0 0 0 0 0 0 -0 -0 0 0 0 0 0 0 0 0 0 0 0
1 1 0 0 0 0 0 1 1 1 1 1 1 1 1 1 1 1 1 1 1 1 0 0 0 0 0 0 0 0 0 0 0 0 0 1 1 1 0 0 0 0 0
1 1 1 0 0 0 1 1 1 1 1 1 1 1 1 1 1 1 1 1 1 1 1 0 0 0 0 0 0 0 0 0 0 0 1 1 1 1 1 0 0 0 0
1 1 1 1 1 1 1 1 1 1 1 1 1 1 1 1 1 1 1 1 1 1 1 1 0 0 0 0 0 0 0 0 0 0 1 1 1 1 1 1 0 0 0
1 1 1 1 1 1 1 1 1 1 1 1 1 1 1 1 1 1 1 1 1 1 1 1 1 0 0 0 0 0 0 0 0 0 1 1 1 1 1 1 0 0 0
1 1 1 1 1 1 1 1 1 1 1 1 1 1 1 1 1 1 1 1 1 1 1 1 1 1 0 0 0 0 0 0 0 1 1 1 1 1 1 1 1 0 0
1 1 1 1 2 2 2 1 1 1 1 1 1 1 1 1 1 1 1 1 1 1 1 1 1 1 1 1 1 1 1 1 1 1 1 1 1 1 1 1 1 1 0
1 1 1 1 1 2 2 1 1 1 1 1 1 1 1 1 1 1 1 1 1 1 1 1 1 1 1 1 1 1 1 1 1 1 1 1 1 1 1 1 1 1 1
1 1 1 1 1 1 1 1 1 1 1 1 1 1 1 1 1 1 1 1 1 1 1 1 1 1 1 1 1 1 1 1 1 1 1 1 0 0 0 1 1 1 1
1 1 1 1 1 1 1 1 1 1 1 1 1 1 1 1 1 1 1 1 1 1 1 1 1 1 1 1 1 1 1 1 1 1 1 0 0 0 0 0 0 1 1
1 1 1 1 1 1 1 1 1 1 1 1 1 1 1 1 1 1 1 1 1 1 1 1 1 1 0 0 0 0 0 0 0 0 0 0 0 0 0 0 0 0 0
1 1 1 1 1 1 1 1 1 1 1 1 1 1 1 1 1 1 1 1 1 1 1 1 1 0 0 0 0 0 0 0 0 0 0 0 0 0 0 0 0 0 0
1 1 1 1 1 1 1 1 1 1 1 1 1 1 1 1 1 0 1 1 1 1 1 1 1 0 0 0 0 0 0 0 0 0 0 0 0 0 0 0 0 0 0
0 0 0 1 1 1 1 1 1 1 1 1 1 1 0 0 0 0 0 0 0 0 0 0 0 0 0 0 0 0 0 0 0 0 0 0 0 0 0 0 0 0 0
0 0 0 0 1 1 1 1 1 1 1 1 1 1 0 0 0 0 0 0 0 0 0 0 0 0 0 0 0 0 0 0 0 0 0 0 0 0 0 0 0 0 0
0 0 0 0 0 1 1 1 1 1 1 0 0 0 0 0 0 0 0 0 0 0 0 0 0 0 0 0 0 0 0 0 0 0 0 0 0 0 0 0 0 0 0
0 0 0 0 0 1 1 1 1 1 0 0 0 0 0 0 0 0 0 0 0 0 0 0 0 0 0 0 0 0 0 0 0 0 0 0 0 0 0 0 0 0 0
Wind_Speed
16 16 16 15 14 13 13 14 13 13 13 12 12 11 11 11 12 12 12 12 11 11 11 10 9 8 9 9 10 11 12 12 12 14 15 14 13 12 11 9 11 13 14
19 17 16 14 13 13 13 13 13 13 12 12 11 11 11 11 10 10 10 10 10 10 10 9 9 8 8 8 9 9 9 9 10 11 13 12 12 11 11 11 13 10 13
18 16 15 14 14 13 13 13 13 13 13 12 12 11 11 10 10 9 9 9 9 9 9 9 8 8 8 8 8 7 7 7 7 8 10 9 9 11 12 14 15 13 12
18 15 14 14 13 13 13 13 13 13 13 12 12 11 11 10 9 9 9 9 8 8 8 8 8 8 7 7 7 6 5 5 5 6 4 6 8 11 11 12 12 12 11
16 14 15 14 13 13 13 13 13 13 13 12 12 11 11 10 9 8 8 8 7 7 7 7 7 7 7 6 6 5 4 4 5 7 3 6 8 11 10 10 10 10 10
16 16 15 14 13 13 13 13 13 12 12 12 11 11 10 10 9 8 8 7 7 6 6 7 6 6 6 5 5 4 4 4 6 6 3 8 9 11 11 9 9 9 9
16 16 15 14 13 13 13 12 12 12 11 11 10 10 9 9 8 8 7 7 6 6 6 6 6 5 5 5 4 4 4 5 7 5 1 8 11 13 11 9 9 8 8
16 16 14 14 14 13 13 12 11 11 10 9 9 9 8 8 7 7 7 6 6 5 5 5 5 5 4 4 4 4 5 8 6 4 4 9 13 13 12 10 8 8 7
16 15 13 13 12 13 12 12 11 10 10 9 8 8 8 7 7 7 6 6 5 5 5 5 5 5 5 4 4 5 7 8 8 4 5 7 13 14 12 10 8 8 7
14 13 11 11 10 10 10 11 11 10 10 9 9 8 8 7 7 7 7 6 6 6 6 5 5 5 5 5 6 6 7 8 8 4 4 8 14 14 12 10 9 8 7
12 11 10 10 8 8 9 10 10 10 9 9 8 8 7 5 6 6 7 8 8 7 6 6 6 6 6 7 8 8 7 5 5 1 5 12 14 14 13 11 10 8 7
11 9 8 9 8 7 6 7 5 5 6 5 5 6 5 4 3 5 6 8 8 8 8 8 8 8 8 6 9 9 5 7 6 2 6 15 14 14 13 11 10 9 8
8 7 7 8 6 6 5 5 3 2 3 4 4 4 3 3 3 3 3 4 5 7 6 6 7 6 6 5 4 6 6 5 1 2 7 13 12 13 12 11 10 9 9
7 6 6 7 5 5 5 4 3 2 3 2 2 3 2 1 1 1 2 3 3 3 3 3 4 5 5 5 4 5 4 2 1 3 6 12 11 11 11 10 10 9 8
8 7 7 6 6 5 4 2 2 2 2 1 2 1 0 0 1 1 0 1 2 3 3 2 3 4 4 5 5 3 1 1 1 3 4 8 9 8 9 10 10 9 9
7 7 7 7 6 5 4 2 2 2 1 2 2 1 1 1 1 1 1 1 1 1 2 3 3 3 3 3 3 2 1 0 1 3 5 5 7 7 6 8 9 9 9
7 6 6 5 6 5 4 2 2 2 1 2 2 2 2 2 1 1 2 1 1 1 1 2 3 3 2 2 2 1 1 1 2 3 4 3 4 6 6 6 7 8 8
7 7 6 6 6 5 4 3 3 2 2 2 3 3 3 2 2 1 1 1 1 2 1 2 2 2 2 2 1 1 0 1 1 2 2 2 3 4 5 6 7 8 8
8 8 7 7 6 4 3 2 3 3 3 3 3 3 3 2 2 2 1 1 1 2 1 2 1 1 2 2 1 1 1 1 1 2 2 2 3 3 3 6 8 8 8
9 8 8 7 6 4 3 2 2 3 3 3 4 3 3 3 3 3 2 1 2 2 1 1 1 1 1 1 1 1 2 2 2 2 2 2 3 4 4 4 4 6 9
10 10 9 8 7 5 3 2 2 2 2 3 3 4 4 4 4 3 3 2 2 2 2 2 1 2 1 2 2 2 2 3 4 3 2 3 3 4 4 5 4 4 5
9 9 8 8 7 6 4 2 1 2 2 3 4 4 5 5 5 4 3 3 3 2 2 2 1 1 1 2 2 3 2 2 3 4 3 3 3 4 5 6 6 6 6
10 9 8 8 7 7 5 3 2 2 2 3 3 3 4 5 5 5 5 4 4 3 2 2 2 2 2 2 2 2 3 3 2 2 4 4 4 4 5 6 7 7 8
9 9 9 9 8 8 7 5 4 3 3 4 3 3 4 5 6 6 6 5 5 4 3 3 2 2 1 1 1 1 1 3 4 3 2 4 5 6 5 6 7 7 7
9 9 8 9 9 9 8 7 6 6 5 4 4 4 4 5 6 6 6 5 5 4 4 3 3 2 1 0 1 1 2 2 2 4 4 3 4 5 5 5 6 6 7
9 9 8 9 10 9 9 9 8 8 6 5 5 4 4 4 5 7 6 6 5 4 4 4 3 3 3 2 2 2 2 2 3 3 4 4 4 4 5 4 5 5 5
Wind_Direction
118 123 124 124 128 131 133 134 132 130 127 124 120 115 109 104 101 100 101 102 103 106 107 105 100 94 86 81 80 82 84 86 88 90 91 90 88 85 81 89 104 91 92
121 124 124 124 128 132 134 135 135 134 132 130 127 124 119 114 110 108 108 107 107 109 109 108 108 105 100 96 95 95 96 99 104 108 109 102 94 85 74 69 83 98 96
118 124 125 124 128 131 133 134 136 137 137 135 134 132 128 124 120 117 115 113 113 114 114 113 115 113 110 108 109 111 115 122 130 140 143 121 107 92 85 85 92 98 96
121 129 125 126 128 131 133 134 137 141 141 141 141 140 138 134 130 127 124 122 120 120 120 120 120 118 118 119 122 127 137 152 168 186 198 131 119 106 99 97 99 100 99
121 120 120 125 126 130 133 135 139 142 144 145 147 147 145 142 138 136 134 132 129 127 126 126 125 126 128 132 136 147 172 197 215 232 228 111 106 118 113 110 107 107 106
125 121 120 122 123 127 131 135 139 142 146 149 151 152 150 148 147 146 144 142 140 138 136 135 134 136 140 144 152 172 207 237 253 239 202 129 120 129 125 123 119 115 115
123 120 122 120 121 126 131 134 137 140 144 149 152 152 151 151 152 154 153 154 154 152 150 146 145 147 153 160 172 197 233 256 262 279 154 122 127 135 135 133 130 127 124
120 119 121 121 123 126 131 133 135 138 141 144 148 150 150 151 155 159 160 161 163 164 162 158 158 163 171 180 193 222 251 271 261 266 127 119 137 141 141 141 140 141 137
119 123 131 130 128 127 128 130 132 133 137 140 142 144 149 156 163 168 168 168 169 173 175 174 176 183 191 199 214 238 259 272 287 275 133 127 143 145 147 147 149 152 150
117 123 128 133 134 140 136 134 133 132 133 137 144 151 157 164 174 180 180 178 180 184 186 187 193 196 203 211 225 240 258 277 268 265 111 137 148 149 150 153 156 160 160
116 122 132 132 139 145 143 138 140 140 140 146 152 159 165 180 188 192 202 180 187 192 195 197 205 212 213 217 225 234 250 256 248 206 118 149 158 155 155 159 164 167 170
118 128 135 133 139 147 139 134 148 157 155 175 163 166 189 198 197 198 172 177 191 201 207 208 212 220 226 221 216 223 239 239 247 162 144 161 161 157 158 162 169 175 181
110 114 120 125 136 133 123 143 147 153 154 188 168 176 205 216 204 177 152 175 196 210 215 204 210 225 226 233 205 203 228 244 217 130 145 157 158 157 159 165 174 180 182
98 90 97 106 107 103 114 135 140 147 151 173 165 182 196 240 269 162 162 181 200 213 218 205 216 230 246 256 242 218 220 228 145 119 143 153 161 160 162 168 175 176 174
76 69 73 79 78 72 75 97 112 100 130 133 113 151 79 257 299 302 275 199 211 213 212 227 230 237 243 263 263 248 236 241 140 120 130 152 153 155 163 169 174 177 176
64 57 59 70 72 73 73 62 66 74 73 73 79 72 37 21 337 310 274 246 260 234 209 215 231 239 239 247 272 294 358 23 21 106 120 145 144 148 165 166 172 174 175
70 60 58 71 69 67 69 55 67 67 73 60 73 58 35 7 357 338 311 305 294 284 265 250 254 249 231 244 266 304 348 19 40 68 97 125 134 140 149 158 159 161 166
69 60 54 59 66 63 62 55 57 46 59 63 65 58 40 14 356 339 318 315 304 289 276 263 256 259 250 226 233 240 217 58 62 74 79 110 119 124 139 142 139 141 148
64 58 55 55 52 52 60 69 73 62 53 56 60 53 38 20 358 341 327 318 296 274 270 281 293 282 258 225 194 127 99 84 71 93 89 88 102 112 126 135 128 125 131
67 62 54 53 45 37 44 56 71 68 60 54 53 45 37 21 10 350 315 314 305 295 290 288 289 264 248 175 143 99 85 72 68 76 79 81 85 103 109 116 115 112 112
64 58 52 46 38 34 33 28 52 57 50 58 56 43 35 22 7 353 339 328 305 284 275 271 237 228 218 153 132 114 82 65 58 54 61 78 81 88 96 96 97 96 103
63 57 51 41 33 30 25 21 38 60 63 65 51 41 33 25 8 359 354 331 329 310 298 296 281 237 216 188 169 151 145 101 55 44 47 61 74 79 85 86 93 92 94
61 54 50 40 33 24 16 22 40 75 75 61 49 41 27 23 21 11 2 352 346 339 341 325 293 252 229 208 181 161 157 158 127 62 47 52 59 66 74 79 82 85 90
61 58 53 45 37 26 21 28 36 55 60 45 39 41 37 35 27 20 16 9 1 1 356 340 339 299 235 209 175 137 105 131 143 129 73 57 62 61 65 82 83 81 83
63 59 56 51 42 34 33 35 41 49 51 48 44 43 37 40 31 23 22 15 9 8 6 9 9 10 3 282 151 136 126 108 111 133 133 110 70 52 55 69 80 81 84
66 60 58 55 46 40 40 41 46 50 51 51 43 37 35 41 32 23 24 21 18 16 14 15 22 34 34 46 72 92 122 138 141 128 132 127 102 68 55 59 74 80 85